Concord, NH

6:37 PM EDT on April 25, 2017 (GMT -0400)
Concord Municipal

Weather History for KCON - June, 2013

Change the Weather History Date:

Tuesday, June 18, 2013

  Actual Average Record
Temperature  
Mean Temperature 58 °F 66 °F  
Max Temperature 64 °F 78 °F 98 °F (1994)
Min Temperature 52 °F 53 °F 36 °F (1958)
Degree Days  
Heating Degree Days 7 2  
Month to date heating degree days 64 67  
Since 1 June heating degree days 64 67  
Since 1 July heating degree days 6837 7217  
Cooling Degree Days 0 3  
Month to date cooling degree days 34 38  
Year to date cooling degree days 55 56  
Since 1 June cooling degree days 34 38  
Growing Degree Days 8 (Base 50)    
Moisture  
Dew Point 55 °F    
Average Humidity 86    
Maximum Humidity 100    
Minimum Humidity 72    
Precipitation  
Precipitation 0.05 in 0.12 in 1.06 in (1910)
Month to date precipitation 4.88 2.34  
Year to date precipitation 17.64 18.00  
Snow  
Snow 0.00 in 0.00 in 0.00 in (2002)
Month to date snowfall 0.0 0.0  
Since 1 June snowfall 0.0 0.0  
Since 1 July snowfall 83.4 61.4  
Snow Depth 0.00 in    
Sea Level Pressure  
Sea Level Pressure 29.93 in    
Wind  
Wind Speed 2 mph (NNW)    
Max Wind Speed 10 mph    
Max Gust Speed 25 mph    
Visibility 6 miles    
Events Fog    
T = Trace of Precipitation, MM = Missing Value Source: NWS Daily Summary

Daily Weather History Graph

Daily Weather History Graph

Search for Another Location

Airport or City:

Trip Planner

Search our weather history database for the weather conditions in past years. The results will help you decide how hot, cold, wet, or windy it might be!

Date:

Astronomy

Jun. 18, 2013 Rise Set
Actual Time 5:05 AM EDT 8:28 PM EDT
Civil Twilight 4:30 AM EDT 9:04 PM EDT
Nautical Twilight 3:43 AM EDT 9:50 PM EDT
Astronomical Twilight 2:46 AM EDT 10:48 PM EDT
Moon 3:03 PM EDT (6/18) 1:19 AM EDT (6/18)
Length of Visible Light 16h 34m
Length of Day
15h 23m
Waxing Gibbous, 70% of the Moon is Illuminated
Jun 18
Waxing Gibbous
Jun 23
Full
Jun 30
Last Quarter
Jul 8
New
Jul 15
First Quarter

Hourly Weather History & Observations

Time (EDT) Temp. Dew Point Humidity Pressure Visibility Wind Dir Wind Speed Gust Speed Precip Events Conditions
12:51 AM 62.1 °F 61.0 °F 96% 29.90 in 10.0 mi Calm Calm - N/A   Overcast
1:51 AM 59.0 °F 59.0 °F 100% 29.89 in 10.0 mi Calm Calm - 0.04 in   Partly Cloudy
2:43 AM 57.2 °F 57.2 °F 100% 29.89 in 2.5 mi Calm Calm - N/A   Clear
2:51 AM 57.0 °F 57.0 °F 100% 29.89 in 2.5 mi Calm Calm - N/A   Clear
3:07 AM 57.2 °F 57.2 °F 100% 29.90 in 1.2 mi NW 3.5 mph - N/A   Clear
3:15 AM 57.2 °F 57.2 °F 100% 29.89 in 2.0 mi Calm Calm - N/A   Clear
3:19 AM 57.2 °F 57.2 °F 100% 29.89 in 1.5 mi Calm Calm - N/A   Partly Cloudy
3:25 AM 55.4 °F 55.4 °F 100% 29.89 in 0.8 mi SE 3.5 mph - N/A   Clear
3:32 AM 55.4 °F 55.4 °F 100% 29.89 in 0.8 mi ESE 3.5 mph - N/A   Mist
3:45 AM 55.4 °F 55.4 °F 100% 29.89 in 0.2 mi SSE 3.5 mph - N/A Fog Fog
3:51 AM 55.0 °F 55.0 °F 100% 29.90 in 0.2 mi Calm Calm - N/A Fog Fog
3:58 AM 55.4 °F 55.4 °F 100% 29.90 in 0.5 mi Calm Calm - N/A Fog Fog
4:11 AM 55.4 °F 55.4 °F 100% 29.90 in 0.5 mi Calm Calm - N/A Fog Fog
4:26 AM 55.4 °F 55.4 °F 100% 29.90 in 1.2 mi Calm Calm - N/A   Partly Cloudy
4:29 AM 53.6 °F 53.6 °F 100% 29.90 in 2.5 mi Calm Calm - N/A   Partly Cloudy
4:36 AM 53.6 °F 53.6 °F 100% 29.90 in 6.0 mi Calm Calm - N/A   Partly Cloudy
4:42 AM 53.6 °F 53.6 °F 100% 29.91 in 1.8 mi Calm Calm - N/A   Clear
4:45 AM 53.6 °F 53.6 °F 100% 29.91 in 0.5 mi Calm Calm - N/A Fog Fog
4:47 AM 53.6 °F 53.6 °F 100% 29.91 in 0.2 mi Calm Calm - N/A Fog Fog
4:51 AM 53.1 °F 53.1 °F 100% 29.91 in 0.2 mi Calm Calm - N/A Fog Fog
5:22 AM 53.6 °F 53.6 °F 100% 29.91 in 0.5 mi Calm Calm - N/A Fog Fog
5:37 AM 53.6 °F 53.6 °F 100% 29.91 in 1.5 mi Calm Calm - N/A   Mostly Cloudy
5:51 AM 54.0 °F 54.0 °F 100% 29.92 in 1.2 mi Calm Calm - N/A   Mostly Cloudy
5:58 AM 55.4 °F 55.4 °F 100% 29.92 in 2.0 mi Calm Calm - N/A   Overcast
6:05 AM 55.4 °F 55.4 °F 100% 29.92 in 7.0 mi Calm Calm - N/A   Overcast
6:51 AM 57.9 °F 57.9 °F 100% 29.94 in 7.0 mi Calm Calm - N/A   Scattered Clouds
7:51 AM 62.1 °F 57.9 °F 86% 29.95 in 10.0 mi Calm Calm - N/A   Partly Cloudy
8:51 AM 62.1 °F 57.0 °F 84% 29.96 in 10.0 mi WNW 3.5 mph - N/A   Clear
9:51 AM 63.0 °F 55.9 °F 78% 29.96 in 10.0 mi NNW 3.5 mph - N/A   Mostly Cloudy
10:51 AM 62.1 °F 57.9 °F 86% 29.96 in 10.0 mi NW 3.5 mph - 0.00 in   Overcast
11:51 AM 62.1 °F 55.9 °F 80% 29.98 in 10.0 mi North 9.2 mph 25.3 mph 0.01 in   Overcast
12:51 PM 62.1 °F 55.9 °F 80% 29.96 in 10.0 mi North 6.9 mph - 0.00 in   Overcast
1:51 PM 61.0 °F 53.1 °F 75% 29.97 in 10.0 mi Calm Calm - N/A   Overcast
2:51 PM 63.0 °F 53.1 °F 70% 29.95 in 10.0 mi Variable 4.6 mph - N/A   Overcast
3:51 PM 62.1 °F 54.0 °F 75% 29.94 in 10.0 mi North 5.8 mph - N/A   Overcast
4:51 PM 61.0 °F 53.1 °F 75% 29.95 in 10.0 mi Calm Calm - N/A   Overcast
5:51 PM 60.1 °F 53.1 °F 78% 29.95 in 10.0 mi Calm Calm - N/A   Overcast
6:51 PM 60.1 °F 54.0 °F 80% 29.95 in 10.0 mi Calm Calm - N/A   Overcast
7:51 PM 59.0 °F 54.0 °F 83% 29.95 in 10.0 mi Calm Calm - N/A   Overcast
8:51 PM 59.0 °F 55.0 °F 87% 29.94 in 10.0 mi NNW 3.5 mph - N/A   Overcast
9:51 PM 57.9 °F 55.9 °F 93% 29.95 in 10.0 mi Calm Calm - N/A   Overcast
10:51 PM 57.0 °F 55.9 °F 96% 29.94 in 10.0 mi Calm Calm - N/A   Overcast
11:51 PM 57.0 °F 57.0 °F 100% 29.95 in 10.0 mi Calm Calm - N/A   Overcast